CAPE
8 8 8 7 2 0 0 0 0 0 0 0 0 0 0 0 0 0 0 0 0 0 0 0 0 0 0 0 0 0 0 0 0 0 0 0 0 0 0 0 0 0 0 0 190
6 8 6 8 4 1 0 0 0 0 0 0 0 0 0 0 0 0 0 0 0 0 0 0 0 0 0 0 0 0 0 0 0 0 0 0 0 0 0 0 0 0 0 0 184
8 3 7 5 4 2 0 0 0 0 0 0 0 0 0 0 0 0 0 0 0 0 0 0 0 0 0 0 0 0 0 0 0 0 0 0 0 0 0 0 0 0 0 0 45
6 4 6 5 4 0 0 0 0 0 0 0 0 0 0 0 0 0 0 0 0 0 0 0 0 0 0 0 0 0 0 0 0 0 0 0 0 0 0 0 0 0 0 0 8
6 4 2 3 3 0 0 0 0 0 0 0 0 0 0 0 0 0 0 0 0 0 0 0 0 0 0 0 0 0 0 0 0 0 0 0 0 0 0 0 0 0 0 0 0
4 4 3 5 3 0 0 0 0 0 0 0 0 0 0 0 0 0 0 0 0 0 0 0 0 0 0 0 0 0 0 0 0 0 0 0 0 0 0 0 0 0 0 0 0
3 2 5 6 2 0 0 0 0 0 0 0 0 0 0 0 0 0 0 0 0 0 0 0 0 0 0 0 0 0 0 0 0 0 0 0 0 0 0 0 0 0 0 0 0
0 1 3 3 0 0 0 0 0 0 0 0 0 0 0 0 0 0 0 0 0 0 0 0 0 0 0 0 0 0 0 0 0 0 0 0 0 0 0 0 0 0 0 0 0
0 0 0 0 0 0 0 0 0 0 0 0 0 0 0 0 0 0 0 0 0 0 0 0 0 0 0 0 0 0 0 0 0 0 0 0 0 0 0 0 0 0 0 0 0
0 0 0 0 0 0 0 0 0 0 0 0 0 0 0 0 0 0 0 0 0 0 0 0 0 0 0 0 0 0 0 0 0 0 0 0 0 0 0 0 0 0 0 0 0
0 0 0 0 0 0 0 0 0 0 0 0 0 0 0 0 0 0 0 0 0 0 0 0 0 0 0 0 0 0 0 0 0 0 0 0 0 0 0 0 0 0 0 0 0
0 0 0 0 0 0 0 0 0 0 0 0 0 0 0 0 0 0 0 0 0 0 0 0 0 0 0 0 0 0 0 0 0 0 0 0 0 0 0 0 0 0 0 0 0
0 0 0 0 0 0 0 0 0 0 0 0 0 0 0 0 0 0 0 0 0 0 0 0 0 0 0 0 0 0 0 0 0 0 0 0 0 0 0 0 0 0 0 0 0
11 1 0 0 2 1 0 0 11 1 0 0 0 0 0 0 0 0 0 0 0 0 0 0 0 0 0 0 0 0 0 0 0 0 0 0 0 0 0 0 0 0 0 0 0
19 5 0 0 0 1 0 0 67 0 0 0 0 0 0 0 0 0 0 0 0 0 0 0 0 0 0 0 0 0 0 0 0 0 0 0 0 0 0 0 0 0 0 0 0
35 13 11 15 0 0 15 11 16 0 0 0 0 0 0 0 0 0 0 0 0 0 0 0 0 0 0 0 0 0 0 0 0 0 0 0 0 0 0 0 0 0 0 0 0
0 7 15 3 1 27 112 55 7 0 0 0 0 0 0 0 0 0 0 0 0 0 0 0 0 0 0 0 0 0 0 0 0 0 0 0 0 0 0 0 0 0 0 0 0
0 1 0 4 7 107 31 24 0 0 0 0 0 0 0 0 0 0 0 0 0 0 0 0 0 0 0 0 0 0 0 0 0 0 0 0 0 0 0 0 0 0 0 0 0
0 0 0 1 9 33 21 2 0 0 0 0 0 0 0 0 0 0 0 0 0 0 0 0 0 0 0 0 0 0 0 0 0 0 0 0 0 0 0 0 0 0 0 0 0
0 0 0 0 13 50 7 0 0 0 0 0 0 0 0 0 0 0 0 0 0 0 0 0 0 0 0 0 0 0 0 0 0 0 0 0 0 0 0 0 0 0 0 0 0
0 0 0 0 0 27 0 0 0 0 0 0 0 0 0 0 0 0 0 0 0 0 0 0 0 0 0 0 0 0 0 0 0 0 0 0 0 0 0 0 0 0 0 0 0
0 0 0 22 0 0 0 0 0 0 0 0 0 0 0 0 0 0 0 0 0 0 0 0 0 0 0 0 0 0 0 0 0 0 0 0 0 0 0 0 0 0 0 0 0
0 0 0 6 0 0 0 1 1 0 1 0 0 0 0 0 0 0 0 0 0 0 0 0 0 0 0 0 0 0 0 0 0 0 0 0 0 0 0 0 0 0 0 0 0
0 0 0 1 0 0 0 0 0 2 1 1 1 1 0 0 0 0 0 0 0 0 0 0 0 0 0 0 0 0 0 0 0 0 0 0 0 0 0 0 0 0 0 0 0
0 0 0 0 0 0 0 0 0 0 3 3 1 1 0 0 0 0 0 0 0 0 0 0 0 0 0 0 0 0 0 0 0 0 0 0 0 0 0 0 0 0 0 0 0
0 0 0 0 2 1 6 0 0 1 0 1 0 0 0 0 0 0 0 1 0 0 0 0 0 0 0 0 0 0 0 0 0 0 0 0 0 0 0 0 0 0 0 0 0
0 0 0 0 2 1 0 0 0 0 0 6 0 5 2 0 4 0 0 0 2 0 0 0 0 0 0 0 0 0 0 0 0 0 0 0 0 0 0 0 0 0 0 0 0
CIN
-3 -2 -1 0 0 0 0 0 0 0 0 0 0 0 0 0 0 0 0 0 0 0 0 0 0 0 0 0 0 0 0 0 0 0 0 0 0 0 0 0 0 0 0 0 -357
-1 -2 -1 0 0 0 0 0 0 0 0 0 0 0 0 0 0 0 0 0 0 0 0 0 0 0 0 0 0 0 0 0 0 0 0 0 0 0 0 0 0 0 0 0 -389
-3 -2 -1 -1 0 0 0 0 0 0 0 0 0 0 0 0 0 0 0 0 0 0 0 0 0 0 0 0 0 0 0 0 0 0 0 0 0 0 0 0 0 0 0 0 -498
-4 -2 -2 -1 0 0 0 0 0 0 0 0 0 0 0 0 0 0 0 0 0 0 0 0 0 0 0 0 0 0 0 0 0 0 0 0 0 0 0 0 0 0 0 0 -402
-4 -4 -2 -2 -1 0 0 0 0 0 0 0 0 0 0 0 0 0 0 0 0 0 0 0 0 0 0 0 0 0 0 0 0 0 0 0 0 0 0 0 0 0 0 0 0
-4 -3 -4 -2 -1 0 0 0 0 0 0 0 0 0 0 0 0 0 0 0 0 0 0 0 0 0 0 0 0 0 0 0 0 0 0 0 0 0 0 0 0 0 0 0 0
-4 -2 -4 -2 -1 0 0 0 0 0 0 0 0 0 0 0 0 0 0 0 0 0 0 0 0 0 0 0 0 0 0 0 0 0 0 0 0 0 0 0 0 0 0 0 0
-1 -4 -4 -3 0 0 0 0 0 0 0 0 0 0 0 0 0 0 0 0 0 0 0 0 0 0 0 0 0 0 0 0 0 0 0 0 0 0 0 0 0 0 0 0 0
0 0 0 0 0 0 0 0 0 0 0 0 0 0 0 0 0 0 0 0 0 0 0 0 0 0 0 0 0 0 0 0 0 0 0 0 0 0 0 0 0 0 0 0 0
0 0 0 0 0 0 0 0 0 0 0 0 0 0 0 0 0 0 0 0 0 0 0 0 0 0 0 0 0 0 0 0 0 0 0 0 0 0 0 0 0 0 0 0 0
0 0 0 0 0 0 0 0 0 0 0 0 0 0 0 0 0 0 0 0 0 0 0 0 0 0 0 0 0 0 0 0 0 0 0 0 0 0 0 0 0 0 0 0 0
0 0 0 0 0 0 0 0 0 0 0 0 0 0 0 0 0 0 0 0 0 0 0 0 0 0 0 0 0 0 0 0 0 0 0 0 0 0 0 0 0 0 0 0 0
0 0 0 0 0 0 0 0 0 0 0 0 0 0 0 0 0 0 0 0 0 0 0 0 0 0 0 0 0 0 0 0 0 0 0 0 0 0 0 0 0 0 0 0 0
-11 -26 0 0 0 0 0 0 -105 -68 0 0 0 0 0 0 0 0 0 0 0 0 0 0 0 0 0 0 0 0 0 0 0 0 0 0 0 0 0 0 0 0 0 0 0
-7 -10 -3 0 0 0 0 0 -68 0 0 0 0 0 0 0 0 0 0 0 0 0 0 0 0 0 0 0 0 0 0 0 0 0 0 0 0 0 0 0 0 0 0 0 0
-2 -3 -9 -31 0 0 -84 -98 -50 0 0 0 0 0 0 0 0 0 0 0 0 0 0 0 0 0 0 0 0 0 0 0 0 0 0 0 0 0 0 0 0 0 0 0 0
0 -4 -8 -42 -1 -36 -36 -15 -12 0 0 0 0 0 0 0 0 0 0 0 0 0 0 0 0 0 0 0 0 0 0 0 0 0 0 0 0 0 0 0 0 0 0 0 0
0 0 -2 -23 -57 -34 -16 -2 -1 0 0 0 0 0 0 0 0 0 0 0 0 0 0 0 0 0 0 0 0 0 0 0 0 0 0 0 0 0 0 0 0 0 0 0 0
0 0 0 0 -66 -27 -2 -2 0 0 0 0 0 0 0 0 0 0 0 0 0 0 0 0 0 0 0 0 0 0 0 0 0 0 0 0 0 0 0 0 0 0 0 0 0
0 0 0 0 -21 -1 0 0 0 0 0 0 0 0 0 0 0 0 0 0 0 0 0 0 0 0 0 0 0 0 0 0 0 0 0 0 0 0 0 0 0 0 0 0 0
0 0 0 0 -5 -1 0 -1 0 0 0 0 0 0 0 0 0 0 0 0 0 0 0 0 0 0 0 0 0 0 0 0 0 0 0 0 0 0 0 0 0 0 0 0 0
0 0 0 -8 0 0 0 0 0 0 0 0 0 0 0 0 0 0 0 0 0 0 0 0 0 0 0 0 0 0 0 0 0 0 0 0 0 0 0 0 0 0 0 0 0
0 0 0 -1 0 0 0 0 0 0 0 0 0 0 0 0 0 0 0 0 0 0 0 0 0 0 0 0 0 0 0 0 0 0 0 0 0 0 0 0 0 0 0 0 0
0 0 0 0 0 0 0 0 0 0 0 0 0 0 0 0 0 0 0 0 0 0 0 0 0 0 0 0 0 0 0 0 0 0 0 0 0 0 0 0 0 0 0 0 0
0 0 0 0 -2 0 0 0 0 0 0 0 0 0 0 0 0 0 0 0 0 0 0 0 0 0 0 0 0 0 0 0 0 0 0 0 0 0 0 0 0 0 0 0 0
0 0 0 0 0 -1 -3 0 0 0 0 0 0 0 0 0 0 0 0 0 0 0 0 0 0 0 0 0 0 0 0 0 0 0 0 0 0 0 0 0 0 0 0 0 0
-1 0 0 0 -5 0 0 0 0 0 0 -6 0 0 0 0 -8 0 0 0 0 0 0 0 0 0 0 0 0 0 0 0 0 0 0 0 0 0 0 0 0 0 0 0 0
Wind_Speed
28 26 23 24 21 20 19 19 22 21 20 22 22 22 21 21 22 21 25 22 22 19 19 19 18 21 20 20 19 19 16 13 11 10 13 7 7 11 18 10 10 11 12 12 15
27 27 24 25 24 23 21 21 22 21 21 21 22 21 21 20 23 27 22 20 22 17 20 19 21 19 21 21 20 20 17 15 15 15 10 3 6 10 9 9 9 10 10 9 15
26 27 26 25 26 24 23 23 23 22 21 20 21 21 21 20 23 25 19 18 18 19 20 18 20 19 21 20 23 22 19 15 14 14 12 7 9 10 8 9 11 13 11 13 15
28 26 27 25 25 24 25 23 24 22 21 20 20 20 21 19 24 20 16 16 18 18 20 19 19 20 21 21 22 23 19 15 13 13 12 9 12 13 6 7 8 14 11 13 15
28 28 26 27 25 25 24 23 25 23 22 21 20 19 20 22 23 17 15 17 16 17 22 20 21 20 21 20 20 22 21 19 17 17 15 14 13 15 4 9 13 7 9 12 14
26 27 29 26 24 24 24 24 24 24 23 22 21 20 22 27 19 16 16 16 18 18 20 20 22 20 19 21 21 21 20 21 19 20 19 18 17 16 16 7 5 3 8 11 11
21 26 27 27 25 22 21 23 22 25 23 22 21 21 25 27 20 18 16 16 18 18 20 20 18 21 18 19 19 17 21 23 23 21 21 20 22 16 14 17 7 2 4 7 12
18 21 24 22 25 24 19 21 22 23 22 22 21 22 29 23 19 20 18 18 18 18 17 17 17 18 19 16 19 21 21 25 23 20 20 19 23 18 19 11 10 11 7 4 12
26 19 21 19 18 22 22 19 20 21 22 21 23 24 30 22 24 21 19 18 18 17 17 16 17 20 20 21 23 24 27 27 25 20 20 20 23 18 14 15 14 12 14 14 16
18 18 21 20 19 17 18 20 20 19 20 21 24 27 29 30 24 21 19 17 18 17 18 20 21 23 25 26 32 26 27 26 26 22 22 24 27 22 20 22 23 21 21 22 24
19 19 19 19 18 18 16 17 20 26 29 30 30 30 24 23 21 23 20 17 18 19 23 22 27 28 27 26 25 24 26 27 23 23 23 27 31 30 28 29 28 26 26 32 34
20 19 19 19 18 17 21 27 26 24 33 35 29 32 24 21 25 25 21 23 22 26 22 25 35 29 25 24 25 24 25 26 24 21 23 27 33 32 31 31 30 31 32 32 32
21 20 18 19 18 18 24 25 20 20 26 34 34 30 28 25 28 29 24 25 27 27 27 30 27 25 25 26 27 27 28 26 26 22 24 29 36 32 28 26 27 24 25 26 26
24 22 21 18 24 25 29 30 22 20 33 34 36 34 28 26 32 23 24 26 28 32 27 32 29 23 27 29 25 30 26 27 26 26 33 25 38 28 25 30 26 27 25 21 19
26 23 20 23 24 28 26 22 20 19 44 31 31 26 28 32 26 29 24 27 31 29 28 32 28 27 28 28 23 27 20 22 23 26 30 30 33 30 22 23 26 22 18 17 17
23 22 21 22 25 28 19 18 18 29 51 31 26 33 30 33 32 26 28 24 24 28 30 32 25 26 28 24 23 16 18 20 23 26 38 30 28 34 26 22 18 17 17 17 17
22 22 23 23 28 18 18 21 28 43 27 35 31 31 35 35 32 33 35 35 35 36 38 33 33 27 23 24 24 24 22 30 32 32 37 25 26 33 24 23 19 16 15 15 15
12 21 22 24 24 20 22 27 36 38 36 23 29 27 38 35 37 33 36 42 39 34 34 39 42 33 28 29 28 26 26 30 35 35 34 26 32 29 25 17 13 12 13 15 17
15 15 21 25 25 23 29 39 38 29 31 28 22 28 35 38 34 36 36 40 41 36 37 38 41 29 28 26 22 29 33 27 31 31 34 31 30 26 20 16 12 13 15 17 18
15 20 18 17 27 26 31 41 38 27 24 27 29 29 35 36 35 35 36 41 41 39 33 32 36 31 28 24 27 29 22 31 32 39 42 36 35 31 21 17 15 15 15 16 17
16 19 23 19 17 34 38 40 33 31 27 32 33 28 30 31 35 37 40 37 39 38 36 33 37 33 29 35 33 29 32 31 29 33 40 41 39 28 21 17 16 16 16 16 17
18 23 17 18 29 31 35 35 31 30 30 30 29 29 31 32 35 36 39 36 29 31 39 34 35 41 38 33 32 34 36 33 38 39 37 39 40 25 16 16 16 16 14 14 15
24 22 19 18 29 30 28 33 34 33 33 33 35 34 31 32 34 36 33 31 27 25 31 32 39 40 38 37 35 39 36 35 34 32 40 38 39 22 21 19 16 15 15 15 15
25 28 25 24 23 22 25 29 30 29 34 32 32 31 31 32 32 32 36 30 29 29 28 24 34 41 47 43 33 39 36 35 34 40 40 39 30 25 22 19 18 16 15 16 17
27 31 26 32 32 25 24 24 30 28 26 27 32 32 33 37 35 37 32 30 29 29 29 28 38 39 41 35 33 36 36 33 36 35 36 38 33 26 22 19 17 15 15 17 18
31 31 28 29 26 26 24 29 30 31 26 30 30 30 30 34 32 35 31 33 33 29 31 32 36 35 43 39 38 41 36 33 34 35 36 31 31 22 18 16 17 16 16 17 18
26 24 29 33 33 33 34 30 30 25 27 28 27 27 31 30 25 24 24 25 26 27 27 28 31 33 42 32 33 46 39 33 32 33 31 37 29 18 19 19 18 17 17 19 21
Wind_Direction
241 241 241 240 240 240 240 240 239 240 244 241 240 245 250 255 254 252 240 243 241 238 238 236 238 234 237 236 240 239 248 254 257 273 267 61 2 248 240 51 48 74 53 326 98
240 240 240 240 239 238 238 239 238 239 241 243 245 247 254 259 251 244 250 249 242 242 237 233 234 236 237 238 242 242 248 252 259 262 272 24 7 72 63 78 65 76 338 40 107
239 239 240 239 239 238 237 237 238 239 242 245 248 251 252 257 250 245 255 252 248 244 242 240 238 239 239 241 240 243 247 252 264 269 273 303 323 320 42 102 125 128 95 105 118
238 239 239 239 239 237 236 236 238 241 244 249 254 255 254 252 241 260 263 256 252 248 242 240 239 240 241 239 244 244 249 255 266 277 283 304 307 311 65 24 15 152 114 121 131
237 237 238 238 238 238 237 237 238 242 244 248 252 256 251 249 253 272 262 253 257 249 242 241 240 244 242 245 245 249 250 257 266 273 284 294 306 305 324 143 316 20 120 135 143
237 236 236 237 237 239 238 238 239 241 245 248 251 253 249 244 259 265 260 255 253 249 245 246 246 251 249 248 248 252 257 258 265 271 280 286 294 307 310 286 349 16 138 148 150
236 235 235 235 236 238 238 240 241 242 245 248 251 250 248 245 260 256 259 257 255 252 246 251 255 251 254 250 256 259 258 264 265 271 278 286 285 295 309 305 331 328 153 163 170
234 234 235 236 236 236 239 241 242 245 246 249 252 250 246 256 257 253 255 253 253 256 258 256 259 254 256 258 259 257 263 260 270 272 280 284 282 298 300 308 313 312 304 218 185
235 231 233 234 235 237 236 241 244 246 248 250 248 247 246 255 247 252 251 251 250 254 256 257 261 254 255 250 255 259 259 261 270 274 280 280 285 295 309 310 309 311 304 296 289
226 226 231 232 234 236 236 238 244 248 249 250 251 246 249 245 246 247 252 251 252 249 252 252 254 250 250 247 248 256 261 266 267 275 275 278 278 289 294 296 297 299 294 290 284
221 224 227 227 229 231 226 235 240 243 240 239 245 245 252 247 248 243 247 247 251 248 245 250 248 244 247 251 261 264 264 266 273 278 278 276 277 280 286 289 292 295 294 281 276
220 222 226 226 227 228 235 240 242 253 241 242 252 245 253 249 244 241 242 243 245 244 248 250 248 252 256 256 259 263 263 266 276 282 280 282 279 282 285 287 291 293 289 286 284
221 221 220 226 226 233 238 241 254 257 251 244 244 248 247 247 246 238 236 244 245 245 245 248 260 254 255 257 257 261 262 267 274 282 285 286 281 285 290 293 294 296 296 294 293
226 222 220 218 235 237 240 237 258 259 248 248 240 247 244 246 247 248 239 244 248 244 247 254 257 257 254 255 257 260 267 271 273 277 274 288 277 286 292 291 293 296 299 301 299
227 219 209 218 238 232 239 233 253 251 242 249 240 248 240 239 244 241 243 247 244 244 245 251 253 252 253 257 259 265 272 273 277 277 280 280 282 287 294 291 295 304 310 308 308
224 212 200 225 239 234 237 223 246 238 238 245 243 234 232 239 242 242 239 250 251 248 253 252 261 258 257 261 259 261 271 279 282 281 273 277 279 283 288 293 298 306 311 309 312
243 209 205 220 232 221 213 220 234 234 249 244 242 236 230 237 238 237 234 235 238 241 244 250 252 259 260 256 258 259 262 268 271 270 272 286 280 280 291 296 296 302 311 318 323
260 232 221 228 229 216 208 220 236 242 238 255 242 236 235 235 240 238 235 237 242 245 247 246 251 250 255 257 255 255 257 263 268 271 275 281 277 283 292 296 304 309 313 320 322
253 246 233 238 231 220 212 227 235 242 233 240 241 232 238 236 241 237 236 238 239 240 247 249 253 260 255 258 250 258 257 265 271 278 277 278 282 289 289 289 294 303 310 315 320
251 241 242 247 230 219 217 231 237 245 234 233 236 240 236 233 238 234 236 244 244 240 249 256 257 260 258 260 260 259 255 262 265 267 270 276 277 278 274 276 282 295 307 315 321
255 244 247 247 246 222 232 235 242 242 243 236 239 244 242 235 238 239 244 251 242 244 245 251 256 261 254 251 249 254 256 262 266 267 270 275 278 281 266 267 273 289 303 313 321
253 247 250 244 238 237 238 237 241 238 242 243 244 245 244 241 241 242 243 248 249 243 240 246 255 255 254 263 260 258 256 252 260 266 271 275 275 284 265 272 278 288 300 312 322
248 253 252 252 241 242 242 240 242 240 241 244 244 248 252 246 245 244 249 254 255 245 243 241 249 253 259 262 260 256 257 257 262 271 267 270 275 272 272 275 280 280 293 306 317
248 246 250 251 252 248 242 237 243 245 240 245 246 248 247 246 250 250 249 255 256 252 251 243 252 248 252 260 258 257 256 256 258 264 267 268 271 265 265 264 272 280 288 298 308
248 247 251 244 243 246 246 247 239 241 243 241 247 245 245 248 248 253 255 257 260 256 252 249 253 254 259 263 261 260 256 252 254 255 264 269 265 254 253 258 265 274 285 294 302
245 248 251 252 245 239 244 245 242 243 243 242 248 245 245 249 251 250 253 258 256 256 254 251 256 257 259 261 262 262 261 255 251 258 265 273 271 261 254 257 266 273 284 291 301
254 261 252 248 244 242 244 246 245 244 249 248 247 246 246 250 254 263 262 263 265 255 249 247 249 255 258 259 263 262 256 256 260 263 256 263 269 257 252 257 261 270 281 291 298